sat.trackr.live / text

‹ back to catalog

STARLINK-34282

NORAD 64454 · 2025-130S

PAYLOAD ACTIVE UNKNOWN

§ Identity

Operator
Country
US
Launch date
2025-06-18
Launch site
AFETR
Launch vehicle
Mass (kg)
RCS (m²)

Purposes: comms

External: N2YO · Heavens-Above · Gunter

§ Orbital elements

Epoch: 2026-05-25T02:52:08.255136Z

Period
94.01 min
Inclination
53.1591°
Eccentricity
0.0000821
Mean motion
15.31697888 rev/d
Perigee alt
470.2 km
Apogee alt
471.3 km
Semi-major
6,848.9 km
B*
9.0076e-4
RAAN
95.7392°
Arg perigee
116.6851°
Mean anomaly
243.4235°
Rev number
5,237

§ Raw data

STARLINK-342821 64454U 25130S   26145.11953999  .00027688  00000+0  90076-3 0  99932 64454  53.1591  95.7392 0000821 116.6851 243.4235 15.31697888 52379

JSON: /api/v1/satellites/64454 · /tle

For live sub-satellite position, see the globe view (requires WebGL).

§ Visibility from observer

Set your observer location to see the next 7 days of passes ≥ 10°. The values pass through the URL so the page stays shareable.

No JS? Fill the form by hand. The geolocation button needs JavaScript.